| time (UTC) | temp F | wind direction | speed MPH | gust MPH | rain 1hr in | rain 24hr in | rain mn in | humidity % | barometer mb |
| 20260505041453 | 59 | 278 | 1.0 | 4.0 | 0.00 | 0.00 | 0.00 | 67 | 1010.2 |
| 20260505035956 | 59 | 280 | 2.0 | 4.0 | 0.00 | 0.00 | 0.00 | 64 | 1010.1 |
| 20260505034454 | 60 | 278 | 4.0 | 6.0 | 0.00 | 0.00 | 0.00 | 63 | 1010.1 |
| 20260505032953 | 60 | 242 | 4.0 | 7.0 | 0.00 | 0.00 | 0.00 | 61 | 1010.2 |
| 20260505031452 | 61 | 266 | 3.0 | 7.0 | 0.00 | 0.00 | 0.00 | 59 | 1010.2 |
| 20260505025955 | 61 | 259 | 3.0 | 10.0 | 0.00 | 0.00 | 0.00 | 58 | 1010.3 |
| 20260505024452 | 61 | 229 | 1.0 | 4.0 | 0.00 | 0.00 | 0.00 | 58 | 1010.2 |
| 20260505022952 | 62 | 215 | 1.0 | 3.0 | 0.00 | 0.00 | 0.00 | 56 | 1010.2 |
| 20260505021452 | 63 | 283 | 3.0 | 6.0 | 0.00 | 0.00 | 0.00 | 55 | 1010.4 |
| 20260505015955 | 63 | 261 | 2.0 | 5.0 | 0.00 | 0.00 | 0.00 | 55 | 1010.5 |
| 20260505014453 | 63 | 272 | 3.0 | 6.0 | 0.00 | 0.00 | 0.00 | 54 | 1010.4 |
| 20260505011451 | 64 | 268 | 3.0 | 5.0 | 0.00 | 0.00 | 0.00 | 52 | 1010.1 |
| 20260505004451 | 65 | 245 | 4.0 | 7.0 | 0.00 | 0.00 | 0.00 | 50 | 1009.9 |
| 20260505002953 | 65 | 269 | 2.0 | 7.0 | 0.00 | 0.00 | 0.00 | 50 | 1009.8 |
| 20260505001451 | 66 | 284 | 2.0 | 5.0 | 0.00 | 0.00 | 0.00 | 49 | 1009.6 |
| 20260504235955 | 66 | 309 | 3.0 | 7.0 | 0.00 | 0.00 | 0.00 | 48 | 1009.6 |
| 20260504234452 | 67 | 283 | 4.0 | 8.0 | 0.00 | 0.00 | 0.00 | 46 | 1009.5 |
| 20260504232952 | 68 | 266 | 4.0 | 9.0 | 0.00 | 0.00 | 0.00 | 45 | 1009.6 |
| 20260504231452 | 68 | 290 | 4.0 | 9.0 | 0.00 | 0.00 | 0.00 | 45 | 1009.7 |
| 20260504225955 | 69 | 304 | 5.0 | 14.0 | 0.00 | 0.00 | 0.00 | 44 | 1009.6 |
| 20260504224452 | 69 | 261 | 6.0 | 13.0 | 0.00 | 0.00 | 0.00 | 44 | 1009.6 |
| 20260504222952 | 69 | 259 | 6.0 | 12.0 | 0.00 | 0.00 | 0.00 | 44 | 1009.7 |
| 20260504221454 | 69 | 302 | 6.0 | 14.0 | 0.00 | 0.00 | 0.00 | 43 | 1009.6 |
| 20260504215955 | 69 | 309 | 7.0 | 13.0 | 0.00 | 0.00 | 0.00 | 43 | 1009.6 |
| 20260504211451 | 70 | 249 | 7.0 | 14.0 | 0.00 | 0.00 | 0.00 | 41 | 1009.7 |
| 20260504205954 | 70 | 307 | 8.0 | 19.0 | 0.00 | 0.00 | 0.00 | 41 | 1009.8 |
| 20260504204451 | 70 | 271 | 8.0 | 17.0 | 0.00 | 0.00 | 0.00 | 41 | 1009.8 |
| 20260504202952 | 70 | 310 | 7.0 | 17.0 | 0.00 | 0.00 | 0.00 | 40 | 1009.8 |
| 20260504201451 | 69 | 224 | 7.0 | 13.0 | 0.00 | 0.00 | 0.00 | 41 | 1010.1 |
| 20260504195955 | 69 | 314 | 7.0 | 16.0 | 0.00 | 0.00 | 0.00 | 42 | 1010.3 |
| 20260504192952 | 68 | 293 | 8.0 | 17.0 | 0.00 | 0.00 | 0.00 | 44 | 1010.7 |
| 20260504191451 | 68 | 287 | 8.0 | 15.0 | 0.00 | 0.00 | 0.00 | 43 | 1011.0 |
| 20260504185954 | 68 | 259 | 7.0 | 15.0 | 0.00 | 0.00 | 0.00 | 45 | 1011.2 |
| 20260504184452 | 68 | 278 | 6.0 | 11.0 | 0.00 | 0.00 | 0.00 | 44 | 1011.3 |
| 20260504182951 | 67 | 338 | 6.0 | 16.0 | 0.00 | 0.00 | 0.00 | 45 | 1011.3 |
| 20260504181453 | 68 | 284 | 5.0 | 13.0 | 0.00 | 0.00 | 0.00 | 45 | 1011.5 |
| 20260504175953 | 68 | 289 | 4.0 | 10.0 | 0.00 | 0.00 | 0.00 | 47 | 1011.8 |
| 20260504174451 | 67 | 278 | 3.0 | 10.0 | 0.00 | 0.00 | 0.00 | 46 | 1011.9 |
| 20260504172952 | 66 | 231 | 5.0 | 12.0 | 0.00 | 0.00 | 0.00 | 45 | 1012.2 |
| 20260504171453 | 66 | 307 | 6.0 | 14.0 | 0.00 | 0.00 | 0.00 | 45 | 1012.2 |
| 20260504081451 | 46 | 316 | 2.0 | 5.0 | 0.00 | 0.00 | 0.00 | 64 | 1014.8 |